Location: Tuebingen alte Sternwarte
(48.5376°N, 9.0555°E)
Time: 06:15:56
(UTC+02:00)

OTV 5 (USA 277) - Pass Details

Date: 20 June 2018
Orbit: 312 x 321 km, 54.5° (Epoch: 05 July)

Event Time Altitude Azimuth Distance (km) Brightness Sun altitude
Rises 23:22:33 0° 278° (W) 2,043 ? -13.0°
Reaches altitude 10° 23:24:43 10° 293° (WNW) 1,216 ? -13.1°
Maximum altitude 23:27:00 24° 351° (N) 712 ? -13.3°
Drops below altitude 10° 23:29:18 10° 49° (NE) 1,221 ? -13.5°
Sets 23:31:28 0° 64° (ENE) 2,054 ? -13.6°
